Retour au catalogue

AMC-15

ActifCommunicationsGEO
NORAD 28446·PAYLOAD·🇱🇺 Luxembourg

Lancé Oct 14, 2004 depuis Baikonur Cosmodrome

Loading…

TLE

FraisSource: CelesTrak SupGP

Époque: Sep 14, 2026, 23:44 UTC

1 28446C 04041A   26257.98958333  .00000001  00000+0  00000+0 0  2579
2 28446   0.0416 330.8938 0002152 173.8770 100.3920  1.00271973    10

Suivez AMC-15 en temps réel avec AllMySat

Download on the App Store